[[{"header":{"parameterUnit":"m.s-1","parameterCategory":1,"la1":30.2991,"la2":30.254,"lo1":-89.0895,"lo2":-89.0444,"dy":0.0017,"dx":0.0017,"nx":28,"ny":28,"refTime":"2024-10-07T03:00:00:Z","depth":0,"parameterNumber":2,"parameterNumberName":"U-component_of_WINDS"},"data":[0,0,0,0,0,0,0,0,0,0,0,0,0,0,0,0,0,0,0,0,0,0,0,0,0,0,0,0,0,0,0,0,0,0,0,0,0,0,0,0,0,0,0,0,0,0,0,0,0,0,0,0,0,0,0,0,0,0,-3.4966,-3.4967,0,-3.5058,-3.5059,-3.5061,-3.4968,-3.4964,-3.4961,-3.4957,-3.5054,-3.506,-3.5065,0,0,0,0,0,0,0,0,0,0,0,0,0,-3.4711,-3.4716,-3.4966,-3.4967,-3.4968,-3.5058,-3.506,-3.5061,-3.4969,-3.4964,-3.496,-3.4956,-3.5052,-3.5059,-3.5066,0,0,0,0,0,0,0,0,0,0,0,0,0,-3.4815,-3.4718,-3.4966,-3.4933,-3.4931,-3.5058,-3.506,-3.5061,-3.497,-3.4964,-3.4959,-3.4954,-3.5049,-3.5058,-3.5067,-3.5231,0,0,-3.5094,-3.5098,0,0,0,0,0,0,0,0,-3.4809,-3.4824,-3.4937,-3.4936,-3.4934,-3.4996,-3.5005,-3.5118,-3.4971,-3.4955,-3.4957,-3.4951,-3.5039,-3.5049,-3.5078,-3.5236,-3.524,-3.5095,-3.51,-3.5104,-3.5107,0,0,0,0,0,0,0,-3.4802,-3.4819,-3.5003,-3.4939,-3.4937,-3.4914,-3.4923,-3.5026,-3.5027,-3.4956,-3.495,-3.4962,-3.5037,-3.507,-3.5079,-3.5241,-3.5095,-3.5103,-3.5108,-3.5112,-3.5538,-3.5544,0,0,0,0,0,0,-3.4798,-3.4814,-3.5,-3.5005,-3.4856,-3.4923,-3.4933,-3.4982,-3.5025,-3.5027,-3.4966,-3.4957,-3.5057,-3.5069,-3.5083,-3.5278,-3.5104,-3.5113,-3.5118,-3.5532,-3.554,-3.5546,0,0,0,0,0,0,-3.4793,-3.4815,-3.4996,-3.4908,-3.4929,-3.4933,-3.4989,-3.4986,-3.5018,-3.5033,-3.5033,-3.4999,-3.5053,-3.507,-3.5195,-3.528,-3.5117,-3.5125,-3.5525,-3.5535,-3.5543,-3.5671,0,0,0,0,0,0,-3.4786,-3.4814,-3.4876,-3.491,-3.4934,-3.5107,-3.4994,-3.4992,-3.5034,-3.5023,-3.5064,-3.5065,-3.505,-3.5182,-3.5204,-3.529,-3.5132,-3.5518,-3.553,-3.554,-3.5659,-3.5683,-3.5704,0,0,0,0,0,-3.4777,-3.4909,-3.488,-3.4903,-3.5012,-3.5112,-3.5126,-3.5105,-3.5041,-3.5104,-3.5113,-3.5064,-3.5267,-3.5196,-3.5219,-3.5309,-3.5512,-3.5526,-3.5539,-3.5649,-3.5679,-3.5703,0,0,0,0,0,0,-3.4886,-3.4913,-3.4881,-3.5028,-3.5068,-3.5096,-3.5175,-3.5137,-3.5197,-3.5184,-3.5156,-3.5166,-3.5299,-3.5316,-3.5236,-3.547,-3.5379,-3.5398,-3.5455,-3.5483,-3.5505,-3.5499,-3.5139,0,0,0,0,0,-3.4927,-3.5005,-3.5024,-3.5152,-3.5174,-3.5171,-3.5214,-3.5194,-3.5235,-3.5252,-3.527,-3.5313,-3.5386,-3.5435,-3.5503,-3.566,-3.5669,-3.5734,-3.5756,-3.5774,-3.5792,-3.5877,-3.5907,-3.559,-3.559,-3.559,0,0,-3.5013,-3.5037,-3.5088,-3.5175,-3.5204,-3.5286,-3.5186,-3.5277,-3.5339,-3.5266,-3.5386,-3.54,-3.5445,-3.5588,-3.5651,-3.5606,-3.5881,-3.5792,-3.5806,-3.5814,-3.5894,-3.5924,-3.5951,-3.56,-3.5598,-3.5596,0,0,-3.5211,-3.5237,-3.5346,-3.5377,-3.5422,-3.542,-3.5446,-3.548,-3.5487,-3.5606,-3.5553,-3.5625,-3.5752,-3.5786,-3.5821,-3.6032,-3.5989,-3.6054,-3.6172,-3.6256,-3.6281,-3.6303,-3.6379,-3.6407,-3.6071,-3.6071,-3.6072,0,-3.5312,-3.5434,-3.5408,-3.5503,-3.5543,-3.548,-3.5591,-3.5622,-3.5688,-3.5717,-3.5665,-3.5823,-3.5849,-3.5999,-3.605,-3.6079,-3.6109,-3.6051,-3.6279,-3.6301,-3.6321,-3.6394,-3.6423,-3.6079,-3.6078,-3.6078,-3.6077,0,-3.5557,-3.5642,-3.5725,-3.5789,-3.5838,-3.5941,-3.5931,-3.5983,-3.5959,-3.5962,-3.6084,-3.6113,-3.6186,-3.6219,-3.6197,-3.6367,-3.6337,-3.6283,-3.6191,-3.6359,-3.6428,-3.6455,-3.609,-3.6088,-3.6085,-3.6083,0,0,-3.5829,-3.5876,-3.5908,-3.5936,-3.5981,-3.6046,-3.6146,-3.6217,-3.6263,-3.631,-3.6394,-3.6502,-3.6452,-3.649,-3.6471,-3.6544,-3.6711,-3.648,-3.6481,-3.6524,-3.6901,-3.6944,-3.6976,-3.6682,-3.6687,-3.6691,-3.6898,0,-3.603,-3.6203,-3.6182,-3.6348,-3.6427,-3.6368,-3.6455,-3.6492,-3.6497,-3.6565,-3.6569,-3.6647,-3.6574,-3.6597,-3.6667,-3.6676,-3.6787,-3.6661,-3.6761,-3.6765,-3.6754,-3.7012,-3.7057,-3.7251,-3.6924,-3.6929,-3.6932,0,-3.6288,-3.6344,-3.6518,-3.6551,-3.6583,-3.6662,-3.6725,-3.679,-3.6831,-3.6829,-3.6873,-3.684,-3.6941,-3.6845,-3.6984,-3.6899,-3.6938,-3.6949,-3.6956,-3.6966,-3.6861,-3.7031,-3.7312,-3.7342,-3.6973,-3.697,-3.6967,0,-3.6471,-3.659,-3.6709,-3.6735,-3.6776,-3.6833,-3.6852,-3.6887,-3.6932,-3.6987,-3.7015,-3.7082,-3.7119,-3.7171,-3.7158,-3.7089,-3.73,-3.7203,-3.7303,-3.7304,-3.7352,-3.735,-3.7645,-3.7374,-3.7374,-3.7373,-3.7373,0,-3.6699,-3.6809,-3.6792,-3.6866,-3.6986,-3.6961,-3.7081,-3.7093,-3.7125,-3.72,-3.7152,-3.7225,-3.7201,-3.7272,-3.7262,-3.738,-3.7396,-3.7398,-3.7395,-3.7404,-3.7404,-3.7431,-3.7418,-3.7381,-3.7379,-3.7378,-3.7377,0,-3.6925,-3.6918,-3.7045,-3.7073,-3.7082,-3.717,-3.7194,-3.7264,-3.7264,-3.736,-3.7381,-3.7382,-3.7463,-3.7454,-3.7545,-3.7538,-3.7684,-3.7664,-3.7671,-3.7667,-3.7768,-3.7759,-3.8093,-3.8136,-3.7836,-3.7838,-3.7841,0,-3.7072,-3.7155,-3.7191,-3.7238,-3.7262,-3.7338,-3.7383,-3.736,-3.7408,-3.7461,-3.7525,-3.7601,-3.7661,-3.7793,-3.7803,-3.7872,-3.7854,-3.7966,-3.7864,-3.7871,-3.7858,-3.7854,-3.7863,-3.7987,-3.799,-3.7993,-3.7995,0,-3.7335,-3.7327,-3.7393,-3.7459,-3.7513,-3.7563,-3.7608,-3.765,-3.7631,-3.7688,-3.777,-3.7817,-3.7909,-3.7986,-3.8051,-3.8071,-3.8032,-3.8027,-3.8054,-3.8065,-3.8067,-3.8069,-3.7728,-3.802,-3.8017,-3.8016,-3.8014,-3.8013,-3.7527,-3.7598,-3.7635,-3.771,-3.7742,-3.7785,-3.7852,-3.7861,-3.7928,-3.8002,-3.7984,-3.8077,-3.8115,-3.8199,-3.8226,-3.8298,-3.8258,-3.8296,-3.8307,-3.8317,-3.833,-3.8053,-3.831,-3.8309,-3.8308,-3.8308,-3.8307,0,-3.7789,-3.7809,-3.7879,-3.7943,-3.8003,-3.7958,-3.8006,-3.8058,-3.8141,-3.818,-3.824,-3.8334,-3.8408,-3.8423,-3.8494,-3.8549,-3.8533,-3.8569,-3.8566,-3.8572,-3.8361,-3.8332,-3.8581,-3.8581,-3.8581,-3.8581,-3.8581,-3.8581,-3.7932,-3.805,-3.8047,-3.818,-3.8199,-3.829,-3.8321,-3.8361,-3.8392,-3.85,-3.8561,-3.857,-3.8599,-3.8672,-3.8738,-3.8741,-3.877,-3.8814,-3.881,-3.8613,-3.8586,-3.856,-3.8532,-3.882,-3.882,-3.9014,-3.9016,-3.9017]},{"header":{"parameterUnit":"m.s-1","parameterCategory":1,"la1":30.2991,"la2":30.254,"lo1":-89.0895,"lo2":-89.0444,"dy":0.0017,"dx":0.0017,"nx":28,"ny":28,"refTime":"2024-10-07T03:00:00:Z","depth":0,"parameterNumber":3,"parameterNumberName":"V-component_of_WINDS"},"data":[0,0,0,0,0,0,0,0,0,0,0,0,0,0,0,0,0,0,0,0,0,0,0,0,0,0,0,0,0,0,0,0,0,0,0,0,0,0,0,0,0,0,0,0,0,0,0,0,0,0,0,0,0,0,0,0,0,0,-5.2561,-5.2561,0,-5.2583,-5.2584,-5.2584,-5.2489,-5.2486,-5.2483,-5.2481,-5.2502,-5.2505,-5.2508,0,0,0,0,0,0,0,0,0,0,0,0,0,-5.2434,-5.2437,-5.2561,-5.2561,-5.2562,-5.2583,-5.2584,-5.2584,-5.2489,-5.2486,-5.2482,-5.2479,-5.2501,-5.2504,-5.2508,0,0,0,0,0,0,0,0,0,0,0,0,0,-5.2476,-5.2438,-5.2561,-5.2517,-5.2513,-5.2583,-5.2584,-5.2584,-5.249,-5.2486,-5.2482,-5.2478,-5.2499,-5.2504,-5.2509,-5.2621,0,0,-5.2523,-5.2525,0,0,0,0,0,0,0,0,-5.2474,-5.2481,-5.2523,-5.252,-5.2516,-5.2529,-5.2546,-5.2596,-5.2491,-5.2499,-5.248,-5.2476,-5.2514,-5.2517,-5.253,-5.2622,-5.2623,-5.2523,-5.2526,-5.2528,-5.253,0,0,0,0,0,0,0,-5.2471,-5.2479,-5.257,-5.2524,-5.252,-5.2495,-5.2497,-5.2555,-5.2529,-5.2498,-5.2491,-5.2495,-5.2511,-5.2526,-5.253,-5.2623,-5.2523,-5.2527,-5.253,-5.2532,-5.2807,-5.2811,0,0,0,0,0,0,-5.2474,-5.2477,-5.2569,-5.257,-5.2484,-5.2501,-5.2502,-5.2529,-5.2529,-5.2525,-5.2499,-5.249,-5.252,-5.2525,-5.2531,-5.2661,-5.2528,-5.2533,-5.2535,-5.2802,-5.2808,-5.2813,0,0,0,0,0,0,-5.2472,-5.2483,-5.2568,-5.2522,-5.2531,-5.2508,-5.2538,-5.2532,-5.2547,-5.2529,-5.2524,-5.2519,-5.2517,-5.2524,-5.2599,-5.2661,-5.2535,-5.2539,-5.2797,-5.2804,-5.281,-5.2925,0,0,0,0,0,0,-5.2469,-5.2483,-5.2526,-5.2524,-5.2534,-5.2638,-5.2542,-5.2535,-5.2555,-5.2545,-5.2547,-5.2543,-5.2514,-5.2593,-5.2604,-5.2665,-5.2543,-5.2791,-5.28,-5.2808,-5.2916,-5.2935,-5.2951,0,0,0,0,0,-5.2464,-5.2558,-5.2529,-5.2541,-5.2588,-5.2641,-5.2647,-5.2613,-5.2561,-5.2603,-5.2592,-5.2543,-5.2652,-5.2601,-5.2613,-5.2677,-5.2787,-5.2798,-5.2807,-5.2908,-5.2931,-5.2951,0,0,0,0,0,0,-5.2568,-5.2557,-5.2525,-5.262,-5.2633,-5.2625,-5.2678,-5.2639,-5.2666,-5.2655,-5.261,-5.2611,-5.2694,-5.2693,-5.2636,-5.2785,-5.2711,-5.2724,-5.2783,-5.2805,-5.2822,-5.2821,-5.2547,0,0,0,0,0,-5.2602,-5.2647,-5.2635,-5.272,-5.2728,-5.2703,-5.2724,-5.2697,-5.2707,-5.2712,-5.2706,-5.2718,-5.2754,-5.2779,-5.2812,-5.2915,-5.2913,-5.2964,-5.2982,-5.2997,-5.3008,-5.3061,-5.3083,-5.2846,-5.2845,-5.2845,0,0,-5.2673,-5.2672,-5.2704,-5.2741,-5.2747,-5.2794,-5.2707,-5.2761,-5.2795,-5.272,-5.279,-5.2786,-5.2796,-5.2885,-5.2924,-5.2887,-5.3074,-5.301,-5.3021,-5.3025,-5.3074,-5.3096,-5.3116,-5.2852,-5.2851,-5.285,0,0,-5.2825,-5.283,-5.2901,-5.2909,-5.292,-5.2902,-5.2919,-5.2917,-5.2912,-5.2982,-5.2926,-5.2965,-5.303,-5.3039,-5.3052,-5.3207,-5.3162,-5.3219,-5.3312,-5.3364,-5.3383,-5.3399,-5.3453,-5.3473,-5.323,-5.3231,-5.3231,0,-5.2912,-5.2981,-5.2943,-5.3,-5.3017,-5.2952,-5.3022,-5.3032,-5.3052,-5.3066,-5.3023,-5.3102,-5.3104,-5.3194,-5.3232,-5.3245,-5.3262,-5.3218,-5.3383,-5.3399,-5.3414,-5.3465,-5.3486,-5.3237,-5.3237,-5.3236,-5.3235,0,-5.3086,-5.3135,-5.3191,-5.3213,-5.3236,-5.33,-5.327,-5.3299,-5.3269,-5.3255,-5.3327,-5.3327,-5.3358,-5.3377,-5.3348,-5.3462,-5.3439,-5.3391,-5.3315,-5.3444,-5.3491,-5.3511,-5.3247,-5.3245,-5.3243,-5.3241,0,0,-5.3306,-5.3304,-5.3326,-5.3334,-5.334,-5.3376,-5.3437,-5.3467,-5.3492,-5.3508,-5.3557,-5.3613,-5.3568,-5.3583,-5.3554,-5.36,-5.3721,-5.3546,-5.3545,-5.3578,-5.3846,-5.3882,-5.3905,-5.3692,-5.3695,-5.3698,-5.3845,0,-5.3455,-5.3558,-5.3524,-5.3629,-5.3672,-5.361,-5.3662,-5.3671,-5.3659,-5.3694,-5.3681,-5.3721,-5.3659,-5.3667,-5.371,-5.3698,-5.3774,-5.3686,-5.3736,-5.3738,-5.3735,-5.393,-5.3968,-5.4107,-5.3863,-5.3866,-5.3868,0,-5.3643,-5.3666,-5.3775,-5.3772,-5.3789,-5.3837,-5.3862,-5.3896,-5.3904,-5.3892,-5.3909,-5.387,-5.3928,-5.3853,-5.3931,-5.3872,-5.389,-5.3887,-5.3891,-5.3894,-5.3811,-5.3938,-5.415,-5.4171,-5.3897,-5.3895,-5.3893,0,-5.3791,-5.3849,-5.3922,-5.3931,-5.393,-5.3965,-5.3966,-5.397,-5.399,-5.4011,-5.4024,-5.4052,-5.4067,-5.4089,-5.4059,-5.4007,-5.4141,-5.4064,-5.4132,-5.4133,-5.4163,-5.4162,-5.4381,-5.4176,-5.4176,-5.4175,-5.4175,0,-5.396,-5.4029,-5.3988,-5.4033,-5.4107,-5.4067,-5.4142,-5.4136,-5.414,-5.4181,-5.4129,-5.4169,-5.4126,-5.4162,-5.4139,-5.4206,-5.4214,-5.4205,-5.4198,-5.421,-5.4211,-5.4221,-5.421,-5.4181,-5.418,-5.4178,-5.4178,0,-5.4139,-5.4114,-5.4188,-5.4181,-5.4181,-5.4236,-5.4229,-5.427,-5.4254,-5.4307,-5.4317,-5.4293,-5.4332,-5.4303,-5.4342,-5.4326,-5.4415,-5.4395,-5.4413,-5.4407,-5.4477,-5.4471,-5.471,-5.4739,-5.4516,-5.4518,-5.452,0,-5.4249,-5.43,-5.4298,-5.4322,-5.4326,-5.4366,-5.4386,-5.4348,-5.4372,-5.4384,-5.4423,-5.4457,-5.4483,-5.4548,-5.4533,-5.4563,-5.4542,-5.4624,-5.4546,-5.4556,-5.4543,-5.454,-5.4544,-5.464,-5.4642,-5.4644,-5.4646,0,-5.4446,-5.4431,-5.4462,-5.4489,-5.4515,-5.4534,-5.4549,-5.4572,-5.4534,-5.4562,-5.4601,-5.4621,-5.4661,-5.4695,-5.4719,-5.4719,-5.4677,-5.4671,-5.4688,-5.47,-5.4709,-5.4704,-5.4455,-5.4665,-5.4664,-5.4662,-5.4661,-5.466,-5.4593,-5.4635,-5.464,-5.4676,-5.4683,-5.4699,-5.4736,-5.4724,-5.4757,-5.4786,-5.4761,-5.4808,-5.4814,-5.4841,-5.4846,-5.4882,-5.4848,-5.4874,-5.488,-5.4887,-5.4896,-5.4703,-5.4886,-5.4885,-5.4885,-5.4884,-5.4884,0,-5.4787,-5.4786,-5.482,-5.4843,-5.4871,-5.4829,-5.4843,-5.4869,-5.4911,-5.492,-5.4946,-5.4991,-5.5024,-5.5011,-5.504,-5.5071,-5.5052,-5.508,-5.5077,-5.5078,-5.4925,-5.4907,-5.5095,-5.5095,-5.5095,-5.5095,-5.5095,-5.5095,-5.4891,-5.496,-5.4945,-5.5017,-5.5015,-5.5061,-5.5073,-5.5086,-5.5093,-5.5145,-5.5172,-5.5164,-5.5164,-5.5192,-5.522,-5.5216,-5.5229,-5.5264,-5.5252,-5.511,-5.5089,-5.5069,-5.5052,-5.5267,-5.5267,-5.5402,-5.5403,-5.5404]}]]